{"data":{"norad_id":49420,"intl_designator":"2021-104N","name":"STARLINK-3110","alt_names":[],"object_type":"PAYLOAD","status":"ACTIVE","operator":null,"country":"US","launch_date":"2021-11-13","launch_site_code":"AFETR","launch_vehicle":null,"mission":null,"orbit_class":"UNKNOWN","rcs_meters":null,"size_class":null,"mass_kg":null,"dimensions":null,"purposes":["comms"],"wikipedia_slug":null,"has_3d_model":false,"image_url":null,"decayed_at":null,"tle_current":{"epoch":"2026-05-25T00:13:36.102432Z","epoch_age_seconds":68154,"freshness":"FRESH","line1":"1 49420U 21104N   26145.00944563  .00000211  00000+0  31341-4 0  9995","line2":"2 49420  53.2150 246.5068 0000939  86.0874 274.0226 15.08839867250142","mean_motion":15.08839867,"eccentricity":9.39e-5,"inclination_deg":53.215,"raan_deg":246.5068,"arg_perigee_deg":86.0874,"mean_anomaly_deg":274.0226,"bstar":3.1341e-5,"rev_number":25014,"period_min":95.437563090318,"perigee_km":539.09420648523,"apogee_km":540.39338449862,"semimajor_km":6917.8807954919,"source":"CELESTRAK","updated_at":"2026-05-25T13:38:16.796974Z"}}}